Wind_Speed
24 23 22 19 19 18 14 15 14 13 14 15 15 15 16 14 12 11 12 10 8 9 9 8 7 7 5 5 6 6 5 7 9 13 12 9 5 5 6 7 6 5 5 6 7 5 3 4 3
26 24 23 20 20 17 16 16 15 16 15 14 14 13 13 13 13 11 10 11 8 10 10 9 7 6 6 5 4 4 4 6 8 11 10 6 2 4 8 8 5 5 6 7 3 1 2 2 1
27 26 25 23 18 17 17 15 16 18 18 16 13 11 10 11 9 8 9 9 9 9 11 10 9 8 7 6 7 7 6 6 8 11 9 5 2 3 6 7 7 8 8 6 3 2 2 2 1
29 27 24 23 20 19 18 17 15 17 18 15 13 11 11 11 8 8 7 5 7 9 10 11 11 10 9 8 6 6 8 9 10 10 8 6 5 5 8 9 8 9 9 7 5 4 4 4 4
31 29 26 24 22 21 20 20 18 19 19 16 14 12 11 12 11 9 8 7 6 6 8 10 11 11 10 8 8 7 7 8 9 10 9 8 8 10 11 12 10 9 10 9 8 7 6 6 7
34 30 28 25 22 22 22 23 21 20 19 18 16 13 12 11 10 9 9 8 6 7 6 7 9 10 11 11 10 9 9 9 10 10 11 12 13 13 13 11 10 11 12 11 10 10 10 11 12
36 33 29 27 24 25 22 23 23 22 20 18 17 14 14 12 10 10 10 9 8 7 6 7 7 8 7 8 10 11 12 13 14 15 16 16 15 12 9 9 11 13 13 14 12 13 14 15 16
40 35 32 29 28 24 24 26 24 25 23 20 18 15 13 13 12 12 11 10 10 9 8 8 7 7 6 6 6 6 8 9 10 11 11 11 10 10 11 12 14 15 16 16 16 17 17 19 20
42 37 35 32 32 29 29 28 26 26 24 22 18 18 14 13 13 13 12 12 11 10 9 8 8 8 9 9 9 9 9 10 11 11 12 12 13 13 15 17 19 18 18 19 19 20 20 21 23
50 40 37 37 37 28 29 29 27 26 24 22 20 17 15 13 12 12 13 13 12 11 10 9 9 9 9 9 9 10 11 11 12 14 16 18 19 20 21 21 21 19 19 20 21 22 23 25 27
53 44 41 40 39 36 29 29 29 27 27 23 19 17 15 14 14 13 12 10 10 10 9 8 7 6 6 7 8 8 9 10 12 13 14 14 16 17 19 19 19 20 21 21 22 24 26 29 31
50 44 43 42 40 36 32 31 30 30 27 25 21 18 16 15 15 15 13 12 9 9 8 8 6 5 6 7 8 10 11 11 12 13 13 14 15 16 17 19 20 22 23 24 26 27 29 32 33
54 47 44 43 41 38 36 31 33 32 29 26 24 20 18 17 15 14 12 12 11 10 9 8 7 6 6 6 8 9 11 12 13 14 16 16 18 20 21 22 23 24 25 27 29 30 31 34 36
50 52 48 46 43 41 37 36 34 30 28 26 26 22 20 18 16 16 15 14 13 12 10 8 9 8 8 9 10 11 11 12 13 14 16 16 18 20 23 25 26 26 27 29 31 33 33 35 38
48 55 51 48 45 43 40 40 33 34 32 28 26 24 23 21 21 19 17 15 15 14 12 11 12 11 10 12 13 13 14 16 17 18 19 19 21 22 23 26 28 29 30 31 33 36 36 36 39
47 59 56 51 48 45 44 38 36 36 33 32 30 27 26 25 23 21 20 19 18 16 13 14 15 14 15 17 17 17 18 20 21 22 23 24 26 26 28 29 31 33 34 35 35 36 37 38 42
43 58 59 52 49 49 48 39 38 38 34 34 31 29 29 28 25 25 24 22 20 18 18 18 18 19 20 20 22 22 24 25 26 27 28 30 31 33 33 34 35 36 37 38 39 40 43 46 50
39 49 62 56 52 50 51 43 41 38 36 34 33 32 31 29 30 28 27 23 22 22 22 23 23 23 24 25 26 27 29 31 31 32 34 35 36 37 38 40 41 41 42 42 44 46 50 55 57
38 43 49 58 55 52 52 46 43 41 40 39 34 33 33 34 31 29 28 27 27 27 27 27 27 28 28 29 31 32 34 35 37 38 38 40 41 41 41 42 44 45 46 47 49 52 57 60 62
39 42 47 50 62 58 53 49 47 44 42 41 38 38 37 35 33 31 31 32 32 32 32 32 32 32 34 35 35 36 38 39 41 42 42 43 45 45 45 45 47 48 49 52 56 59 61 63 64
34 38 43 45 58 62 56 54 51 47 47 45 43 41 42 37 36 35 34 36 37 37 37 38 37 37 38 38 38 40 41 44 45 45 46 47 46 47 48 48 49 52 57 61 64 64 65 66 68
41 36 30 37 45 68 59 61 54 51 51 49 46 45 45 42 42 39 41 42 42 40 39 39 40 39 39 39 41 43 45 45 46 47 47 47 46 46 49 53 56 59 61 63 65 67 68 69 71
43 41 35 35 34 49 65 72 64 56 59 56 52 51 53 52 49 45 45 45 43 40 39 37 38 39 40 40 40 42 44 47 47 47 46 47 50 54 56 57 60 62 63 65 67 70 72 73 74
45 34 33 35 35 40 50 44 47 54 64 64 59 56 59 49 52 50 48 43 40 41 40 39 40 40 40 43 44 47 46 46 47 49 51 54 55 57 58 60 62 64 66 70 72 72 72 71 69
45 41 39 39 43 48 43 42 44 36 43 54 52 58 58 53 51 47 48 46 45 43 41 42 43 42 46 48 48 48 47 49 51 52 53 54 56 59 62 64 66 68 69 69 69 68 66 65 65
45 40 45 42 43 45 46 46 44 36 34 45 55 54 49 50 47 52 53 49 46 44 44 44 45 45 49 54 49 50 51 51 50 53 57 59 61 64 66 67 67 68 67 65 65 64 63 64 66
44 42 42 42 43 42 45 47 46 39 39 40 46 48 44 50 53 56 58 53 46 48 49 50 52 55 58 56 60 53 50 52 54 58 61 61 63 65 66 66 65 65 63 62 62 64 65 67 68
45 41 37 37 37 42 44 44 47 44 37 35 36 37 39 44 51 52 53 51 47 48 48 50 54 53 52 50 46 48 50 53 56 60 61 61 62 63 63 62 60 61 61 63 65 67 68 69 72
50 50 44 35 31 32 32 43 44 44 43 40 41 41 39 42 53 58 53 48 48 52 55 59 58 52 43 45 46 48 52 55 57 59 60 61 61 61 60 59 60 62 64 64 65 68 69 71 73
48 46 46 46 44 40 37 33 34 33 35 41 41 43 48 45 44 43 44 47 53 54 53 47 43 41 45 46 48 52 54 55 56 56 57 57 57 57 58 61 62 63 64 65 66 67 69 69 63
Wind_Direction
196 196 193 191 192 188 179 176 170 159 160 155 159 165 162 162 172 176 177 184 186 169 167 154 146 145 152 144 128 120 115 116 126 142 146 141 111 52 24 360 339 340 325 315 315 313 133 133 104
198 196 192 192 194 185 186 181 170 165 162 160 160 165 161 163 175 179 184 186 192 190 180 175 163 153 157 158 147 141 141 140 148 156 160 159 130 15 355 340 318 318 311 304 305 219 167 131 98
206 200 194 192 191 185 185 176 171 170 164 168 159 159 154 154 165 164 168 185 195 193 192 187 176 169 166 171 164 157 155 160 165 169 175 189 230 325 326 330 314 304 308 309 293 241 204 201 219
207 205 197 190 188 187 179 173 174 171 164 159 159 162 153 144 144 136 136 154 180 193 192 200 200 197 185 180 174 167 161 163 168 175 187 211 249 281 299 308 301 301 296 300 290 256 233 227 230
206 210 198 192 190 186 182 173 174 180 167 159 153 157 146 148 135 134 127 129 131 154 189 198 203 204 199 197 195 189 177 177 181 190 206 230 262 283 294 300 294 292 284 291 283 268 254 248 250
205 210 200 197 189 186 185 177 177 189 173 161 155 163 151 148 144 148 147 144 136 129 138 167 187 200 203 202 207 214 219 215 214 223 237 252 264 273 285 287 288 291 285 285 272 264 257 253 254
201 205 202 195 193 185 189 185 179 185 176 170 162 167 156 152 159 163 168 165 161 157 152 151 160 169 186 205 219 229 235 240 245 249 254 260 265 265 263 271 283 285 277 278 269 260 259 260 262
204 201 201 193 192 194 199 188 187 190 181 178 170 174 169 165 175 182 181 176 179 179 186 189 193 197 205 217 240 254 256 255 254 256 255 251 249 253 264 277 282 277 271 271 267 264 263 264 267
204 200 201 197 193 196 188 189 193 196 189 184 176 181 180 182 187 194 194 194 195 194 202 215 225 229 227 229 232 245 257 262 266 266 267 267 267 270 277 283 286 283 278 275 272 271 272 274 276
203 200 201 201 201 190 195 192 197 201 195 193 185 183 182 184 192 200 204 209 208 209 211 216 223 229 236 240 247 256 261 261 262 261 260 257 256 260 268 274 277 277 275 276 279 281 282 283 285
203 198 202 206 207 201 199 200 200 205 203 197 194 185 185 184 189 190 190 196 199 203 204 216 225 241 254 262 266 265 266 268 269 271 274 279 280 281 282 284 284 284 284 287 288 290 290 289 288
206 197 203 208 211 203 207 206 204 207 206 198 199 193 193 191 193 193 194 202 207 209 213 229 235 257 278 286 284 279 278 279 284 286 288 291 292 291 290 290 292 293 294 292 291 290 292 296 298
214 200 204 210 214 207 203 203 210 206 206 200 203 198 195 197 199 201 201 211 216 223 230 235 244 252 268 283 289 292 289 287 286 289 290 288 289 289 290 289 287 288 290 293 294 295 297 296 296
214 200 204 208 213 213 205 209 210 207 209 207 208 205 201 202 205 210 207 216 221 226 238 245 254 258 270 276 279 284 288 290 290 287 284 287 289 291 293 294 295 296 295 295 295 295 295 296 296
216 202 205 207 211 216 208 212 209 213 208 211 215 213 212 207 213 216 221 224 232 235 239 247 253 259 263 268 269 276 278 278 282 285 288 289 289 290 290 291 292 292 294 293 296 297 299 301 301
213 205 207 206 210 216 215 209 213 216 212 210 214 214 219 217 220 223 227 229 232 238 245 250 257 262 265 267 272 274 276 277 278 281 284 283 284 287 289 291 292 293 292 292 293 294 296 298 298
209 208 211 208 210 215 221 209 217 218 216 214 214 215 220 224 223 228 231 233 239 243 245 250 258 263 265 268 273 274 274 276 276 276 277 278 280 282 285 288 289 291 291 293 295 297 298 301 301
213 213 211 214 212 217 223 213 219 219 220 217 216 217 222 226 229 231 236 237 240 243 247 254 260 263 266 267 269 272 272 272 273 274 274 276 279 281 284 288 290 291 291 292 294 297 298 300 301
224 219 216 216 219 219 223 219 220 221 223 225 226 226 225 229 232 236 241 242 243 244 248 253 258 261 266 267 268 271 273 274 276 277 277 278 281 284 288 290 291 292 293 294 294 294 294 294 295
222 217 216 214 216 221 222 224 223 222 224 228 229 231 231 233 236 236 240 243 243 245 246 251 255 260 264 264 266 270 274 278 280 281 281 282 284 286 288 290 291 291 292 294 295 294 293 294 296
216 216 219 217 214 221 223 224 225 225 228 228 231 233 235 235 237 239 241 245 249 249 250 252 257 263 269 269 270 272 276 278 281 282 282 284 286 286 287 289 289 292 294 292 293 295 296 296 295
228 224 214 220 216 220 221 227 225 228 232 234 233 237 242 242 243 243 252 250 251 248 250 256 260 266 270 275 275 275 276 275 278 280 283 284 286 287 288 290 291 292 293 295 296 296 297 298 299
235 231 234 232 227 223 224 230 230 231 233 236 241 238 240 245 250 249 254 246 248 250 253 259 264 267 271 271 276 279 278 277 280 283 284 286 288 289 290 292 293 295 296 297 298 298 298 298 299
234 229 234 236 229 225 221 227 235 242 242 240 243 242 248 252 245 249 245 245 250 255 258 259 262 265 270 273 276 278 279 281 283 284 286 288 290 292 294 295 296 297 298 297 297 297 298 299 300
225 232 230 230 229 225 226 228 240 246 244 241 242 242 247 251 247 247 248 247 247 253 255 262 267 266 277 270 273 276 279 282 284 287 288 290 294 294 295 296 296 296 297 296 297 299 300 301 301
216 227 230 232 231 228 225 228 236 238 242 238 238 242 250 246 248 245 249 252 252 254 255 264 269 266 270 273 272 275 278 282 286 289 292 294 295 296 297 296 296 296 298 299 300 300 301 301 301
214 221 236 236 231 232 231 231 233 239 238 232 236 240 243 236 246 234 239 250 255 249 259 258 262 267 266 273 265 271 279 284 290 292 293 295 296 295 294 296 297 298 299 299 300 300 301 302 302
215 219 224 225 230 233 235 231 234 240 237 234 232 240 241 247 248 235 248 240 248 252 252 259 263 264 266 266 272 278 284 288 290 291 293 295 295 295 297 297 298 299 300 302 302 302 302 303 302
212 212 222 224 220 229 238 242 240 243 242 239 234 241 243 241 237 241 241 243 247 252 256 257 256 272 280 282 285 289 290 291 292 293 295 295 297 297 298 299 300 301 300 300 301 302 301 299 297
219 226 229 236 233 243 245 234 232 236 239 238 238 239 243 241 241 244 249 251 256 261 263 265 271 277 283 288 291 290 290 291 291 292 294 295 296 297 298 298 299 299 301 302 301 298 295 297 301
Height
5827 5829 5832 5835 5841 5842 5844 5846 5847 5849 5850 5850 5852 5853 5854 5856 5859 5863 5862 5863 5865 5866 5869 5870 5871 5872 5873 5874 5874 5874 5875 5875 5876 5877 5878 5879 5880 5880 5880 5881 5881 5880 5880 5880 5879 5878 5878 5877 5877
5825 5828 5831 5834 5839 5841 5843 5845 5847 5849 5849 5850 5852 5853 5854 5856 5857 5859 5862 5863 5865 5867 5869 5871 5872 5873 5874 5874 5875 5875 5875 5876 5877 5878 5879 5880 5880 5881 5881 5881 5881 5880 5880 5879 5878 5877 5877 5877 5877
5824 5826 5829 5833 5837 5840 5843 5845 5847 5849 5849 5849 5851 5853 5854 5856 5858 5859 5861 5863 5865 5867 5869 5870 5872 5873 5874 5874 5874 5875 5876 5876 5877 5878 5879 5880 5881 5881 5881 5881 5880 5880 5879 5878 5878 5877 5877 5877 5877
5822 5826 5829 5832 5836 5839 5842 5845 5847 5848 5848 5850 5851 5853 5855 5855 5858 5860 5861 5863 5864 5866 5868 5870 5871 5872 5873 5874 5874 5875 5875 5876 5877 5878 5879 5880 5880 5880 5880 5880 5879 5879 5878 5878 5877 5877 5876 5875 5875
5819 5824 5827 5831 5834 5838 5841 5843 5845 5848 5848 5849 5850 5853 5855 5857 5858 5861 5862 5863 5864 5865 5867 5868 5870 5871 5873 5874 5874 5875 5875 5876 5877 5877 5878 5879 5879 5879 5879 5878 5878 5877 5877 5876 5876 5876 5875 5875 5874
5816 5821 5826 5829 5833 5837 5840 5842 5844 5848 5848 5848 5850 5852 5856 5859 5860 5862 5862 5863 5865 5866 5867 5868 5869 5871 5872 5873 5874 5874 5875 5876 5876 5877 5877 5877 5877 5878 5877 5877 5876 5875 5875 5874 5874 5874 5873 5872 5871
5810 5818 5823 5827 5832 5834 5839 5842 5844 5847 5848 5848 5849 5851 5855 5858 5860 5861 5862 5863 5865 5867 5868 5869 5869 5870 5871 5872 5872 5874 5874 5875 5875 5876 5876 5876 5876 5875 5874 5874 5873 5873 5872 5872 5871 5871 5870 5870 5869
5806 5814 5819 5825 5828 5831 5835 5839 5843 5845 5846 5847 5848 5851 5855 5858 5860 5861 5863 5863 5864 5866 5868 5869 5870 5870 5871 5872 5872 5873 5874 5874 5874 5874 5874 5874 5874 5873 5873 5872 5871 5870 5869 5868 5868 5867 5866 5866 5865
5802 5810 5816 5821 5825 5828 5832 5837 5840 5844 5846 5846 5847 5850 5853 5856 5858 5860 5862 5863 5864 5865 5867 5869 5870 5870 5871 5871 5871 5872 5872 5873 5873 5873 5872 5872 5872 5871 5871 5870 5869 5868 5867 5867 5866 5865 5864 5863 5862
5796 5805 5813 5816 5821 5827 5830 5835 5839 5842 5845 5846 5846 5849 5851 5854 5856 5859 5860 5862 5864 5865 5866 5867 5868 5869 5869 5869 5870 5870 5870 5870 5870 5869 5868 5868 5867 5866 5866 5865 5865 5864 5864 5863 5863 5862 5861 5860 5858
5791 5802 5807 5811 5816 5824 5828 5832 5836 5839 5842 5846 5847 5848 5850 5853 5855 5857 5859 5862 5863 5865 5865 5865 5866 5867 5868 5868 5868 5868 5868 5868 5867 5867 5867 5866 5866 5866 5866 5865 5864 5863 5862 5861 5860 5860 5859 5857 5855
5788 5796 5802 5807 5812 5820 5826 5830 5834 5837 5840 5844 5845 5847 5849 5852 5854 5856 5857 5860 5862 5863 5863 5865 5865 5866 5866 5867 5866 5866 5866 5866 5866 5866 5865 5865 5864 5864 5863 5863 5862 5862 5860 5859 5857 5855 5854 5853 5851
5783 5791 5798 5803 5809 5815 5822 5826 5831 5834 5837 5842 5844 5846 5847 5850 5852 5855 5856 5859 5860 5861 5862 5863 5864 5864 5864 5864 5865 5865 5865 5864 5864 5864 5864 5863 5862 5861 5860 5859 5857 5856 5855 5854 5852 5851 5849 5847 5844
5779 5785 5792 5797 5803 5811 5817 5822 5827 5831 5835 5839 5841 5844 5846 5848 5851 5853 5854 5857 5858 5859 5861 5862 5863 5863 5863 5863 5863 5863 5863 5863 5862 5861 5860 5860 5860 5859 5858 5856 5854 5854 5852 5849 5847 5845 5843 5841 5838
5770 5779 5785 5791 5797 5804 5811 5818 5825 5827 5831 5834 5839 5841 5845 5846 5847 5851 5853 5855 5856 5857 5859 5860 5861 5861 5861 5861 5860 5861 5860 5860 5859 5859 5858 5858 5857 5855 5853 5851 5848 5848 5846 5844 5842 5839 5837 5836 5831
5763 5773 5777 5785 5790 5798 5804 5813 5820 5824 5827 5829 5834 5837 5841 5843 5845 5848 5850 5852 5853 5856 5857 5858 5858 5858 5857 5857 5858 5858 5857 5856 5855 5855 5854 5853 5852 5850 5848 5846 5843 5841 5839 5836 5835 5832 5830 5828 5824
5756 5765 5773 5780 5785 5792 5797 5809 5813 5819 5823 5826 5830 5833 5836 5839 5842 5843 5845 5849 5852 5854 5854 5853 5854 5854 5854 5854 5854 5853 5852 5852 5851 5850 5848 5846 5845 5844 5843 5841 5839 5835 5832 5829 5827 5826 5822 5820 5816
5752 5758 5767 5774 5781 5786 5791 5803 5808 5813 5818 5822 5824 5827 5831 5834 5835 5838 5842 5846 5848 5849 5849 5848 5849 5850 5850 5851 5850 5849 5847 5846 5845 5844 5842 5841 5839 5837 5836 5834 5833 5830 5826 5822 5819 5816 5813 5809 5805
5748 5753 5762 5772 5777 5781 5785 5795 5802 5807 5813 5817 5820 5824 5827 5828 5831 5835 5838 5841 5843 5843 5843 5844 5844 5844 5845 5845 5845 5844 5843 5841 5840 5838 5836 5834 5832 5830 5828 5826 5824 5821 5818 5814 5811 5806 5802 5797 5793
5740 5745 5752 5760 5768 5773 5779 5788 5794 5800 5806 5811 5814 5817 5820 5823 5827 5829 5832 5834 5836 5837 5837 5837 5837 5838 5838 5838 5838 5838 5836 5835 5833 5830 5829 5826 5825 5823 5821 5817 5815 5812 5809 5805 5801 5796 5791 5785 5780
5734 5741 5747 5753 5760 5768 5773 5779 5784 5793 5799 5803 5806 5810 5813 5816 5821 5824 5826 5828 5830 5831 5831 5831 5831 5832 5832 5832 5831 5830 5829 5827 5826 5823 5821 5818 5817 5814 5812 5808 5804 5801 5797 5793 5788 5783 5778 5772 5766
5729 5737 5742 5745 5752 5757 5765 5767 5776 5784 5791 5796 5800 5803 5807 5811 5814 5817 5819 5822 5823 5824 5825 5826 5826 5825 5825 5825 5824 5822 5821 5819 5816 5815 5813 5811 5808 5805 5802 5798 5794 5789 5784 5780 5775 5770 5764 5758 5752
5723 5729 5735 5741 5745 5749 5757 5761 5768 5776 5780 5787 5794 5797 5799 5803 5807 5809 5810 5813 5815 5816 5817 5818 5818 5818 5817 5816 5815 5813 5811 5810 5808 5806 5803 5801 5798 5795 5790 5785 5781 5776 5771 5766 5761 5755 5749 5743 5738
5716 5724 5730 5735 5739 5742 5751 5756 5760 5767 5773 5779 5786 5790 5791 5794 5798 5800 5803 5804 5807 5807 5809 5809 5809 5809 5808 5807 5806 5805 5802 5801 5799 5797 5794 5791 5787 5783 5779 5774 5769 5764 5758 5753 5747 5741 5735 5728 5722
5711 5718 5723 5727 5730 5735 5742 5747 5751 5757 5760 5766 5773 5778 5782 5784 5789 5792 5794 5795 5797 5800 5802 5801 5801 5801 5800 5798 5797 5796 5794 5792 5789 5787 5784 5780 5776 5772 5767 5762 5757 5751 5745 5740 5733 5727 5721 5715 5710
5704 5710 5715 5719 5724 5730 5734 5739 5744 5750 5752 5756 5762 5768 5773 5776 5780 5785 5786 5788 5790 5792 5792 5792 5792 5791 5790 5788 5787 5786 5784 5783 5779 5776 5773 5768 5763 5759 5754 5749 5744 5738 5733 5727 5721 5716 5710 5703 5697
5697 5704 5711 5714 5719 5724 5729 5734 5739 5745 5747 5750 5754 5760 5765 5770 5771 5773 5774 5778 5780 5781 5781 5780 5781 5781 5781 5778 5776 5775 5774 5771 5767 5765 5761 5756 5751 5747 5742 5737 5731 5727 5720 5715 5709 5702 5697 5689 5683
5692 5701 5705 5707 5711 5716 5721 5726 5730 5735 5738 5743 5748 5752 5755 5759 5762 5764 5767 5768 5769 5771 5771 5772 5772 5771 5769 5768 5766 5764 5763 5760 5757 5754 5749 5743 5738 5734 5729 5724 5718 5713 5708 5702 5696 5688 5681 5674 5667
5686 5691 5698 5704 5706 5710 5715 5721 5725 5727 5731 5735 5740 5744 5747 5750 5753 5757 5757 5758 5759 5761 5761 5761 5759 5758 5757 5758 5756 5754 5750 5747 5744 5739 5734 5730 5726 5722 5717 5712 5707 5701 5695 5688 5682 5674 5667 5660 5652
5683 5688 5693 5696 5702 5706 5711 5717 5718 5722 5724 5728 5733 5738 5741 5742 5744 5747 5748 5749 5750 5751 5752 5751 5749 5748 5748 5747 5745 5742 5739 5735 5731 5727 5724 5720 5715 5711 5706 5700 5694 5688 5682 5675 5668 5659 5651 5644 5638